Flag for Mexico Weather past 2 weeks in Ojinaga, Chihuahua, Mexico

34 °F

Mostly cloudy.

Feels Like: 30 °F
Forecast: 46 / 51 °F
Wind: 5 mph from North

Location: Marfa Municipal Airport

Current Time: Nov 28, 2015 at 2:30:27 AM

Latest Report: Nov 28, 2015 at 1:55 AM

Visibility: 10 mi

Pressure: 30.16 "Hg (27.34 "Hg at 788m altitude)

Humidity: 87%

Dew point: 30 °F

Location of OjinagaLocation

Historic Weather in Ojinaga — Graph


Ojinaga temperature yesterday

Maximum temperature yesterday: 55 °F (at 6:35 AM)
Minimum temperature yesterday: 34 °F (at 6:35 PM)
Average temperature yesterday: 43 °F

Past Weeks' High & Low Weather Summary

High77 °F (Nov 25, 1:15 PM)100% (Nov 15, 4:35 AM)30.38 "Hg (Nov 15, 4:35 AM)
Low19 °F (Nov 22, 3:15 AM)14% (Nov 20, 1:55 PM)29.62 "Hg (Nov 16, 4:35 PM)
Average47 °F63%30.12 "Hg
* Reported Nov 13 1:15 AM — Nov 28 1:35 AM, Ojinaga, Weather by CustomWeather, © 2015

Note: Actual official high and low records may vary slightly from our data, if they occured in-between our weather recording intervals... More about our weather records


Ojinaga weather history for previous 24 hours

Time TempWeatherWind HumidityBarometerVisibility
1:35 AM
Sat, Nov 28
34 °FMostly cloudy.8 mph87%30.16 "Hg10 mi
1:15 AM34 °FPassing clouds.8 mph87%30.16 "Hg10 mi
12:55 AM34 °FMostly cloudy.8 mph87%30.16 "Hg9 mi
11:35 PM
Fri, Nov 27
34 °FOvercast.13 mph87%30.18 "Hg10 mi
11:15 PM34 °FMostly cloudy.10 mph87%30.19 "Hg10 mi
10:55 PM34 °FMostly cloudy.9 mph87%30.19 "Hg10 mi
10:35 PM34 °FLow clouds.15 mph87%30.18 "Hg10 mi
9:55 PM34 °FMostly cloudy.10 mph93%30.18 "Hg10 mi
9:35 PM34 °FOvercast.12 mph87%30.18 "Hg10 mi
9:15 PM34 °FOvercast.13 mph93%30.19 "Hg10 mi
8:55 PM34 °FOvercast.10 mph93%30.18 "Hg8 mi
8:35 PM34 °FOvercast.10 mph93%30.19 "Hg10 mi
8:15 PM34 °FLow clouds.9 mph87%30.20 "Hg8 mi
7:55 PM34 °FMostly cloudy.15 mph87%30.18 "Hg10 mi
7:35 PM34 °FMostly cloudy.10 mph100%30.18 "Hg10 mi
7:15 PM36 °FMostly cloudy.9 mph93%30.16 "Hg10 mi
6:55 PM36 °FMostly cloudy.5 mph93%30.17 "Hg10 mi
6:35 PM34 °FOvercast.17 mph93%30.17 "Hg9 mi
6:15 PM36 °FOvercast.14 mph93%30.15 "Hg9 mi
5:55 PM36 °FMostly cloudy.10 mph93%30.16 "Hg10 mi
5:35 PM36 °FMostly cloudy.13 mph93%30.16 "Hg9 mi
4:55 PM36 °FMostly cloudy.12 mph93%30.14 "Hg10 mi
4:35 PM36 °FMostly cloudy.18 mph93%30.13 "Hg10 mi
3:55 PM36 °FMostly cloudy.10 mph93%30.15 "Hg8 mi
3:35 PM37 °FLow clouds.8 mph93%30.15 "Hg8 mi
3:15 PM37 °FLow clouds.13 mph93%30.15 "Hg10 mi
2:55 PM37 °FLow clouds.8 mph93%30.14 "Hg10 mi
2:35 PM37 °FMostly cloudy.8 mph93%30.15 "Hg10 mi
1:55 PM37 °FMore clouds than sun.9 mph100%30.15 "Hg5 mi
1:35 PM37 °FMostly cloudy.10 mph93%30.16 "Hg6 mi
1:15 PM37 °FLow clouds.15 mph93%30.16 "Hg5 mi
12:55 PM39 °FLow clouds.13 mph93%30.18 "Hg10 mi
12:35 PM39 °FLow clouds.13 mph93%30.18 "Hg10 mi
12:15 PM41 °FMostly cloudy.14 mph87%30.18 "Hg10 mi
11:55 AM43 °FMore clouds than sun.14 mph87%30.17 "Hg10 mi
11:35 AM45 °FMostly cloudy.14 mph93%30.18 "Hg10 mi
11:15 AM43 °FMore clouds than sun.13 mph93%30.19 "Hg10 mi
10:55 AM43 °FOvercast.14 mph93%30.20 "Hg10 mi
10:35 AM43 °FOvercast.17 mph87%30.20 "Hg10 mi
10:15 AM43 °FOvercast.16 mph93%30.20 "Hg10 mi
9:55 AM45 °FOvercast.18 mph93%30.20 "Hg10 mi
9:35 AM45 °FMostly cloudy.16 mph93%30.20 "Hg10 mi
9:15 AM45 °FMostly cloudy.16 mph93%30.19 "Hg7 mi
8:55 AM46 °FLow clouds.17 mph93%30.19 "Hg2 mi
8:35 AM48 °FLow clouds.14 mph94%30.20 "Hg1 mi
8:15 AM50 °FMostly cloudy.13 mph94%30.18 "Hg8 mi
7:55 AM50 °FCloudy.10 mph94%30.17 "Hg10 mi
7:35 AM52 °FMostly cloudy.12 mph88%30.16 "Hg10 mi
7:15 AM55 °FMostly cloudy.10 mph94%30.16 "Hg10 mi
6:55 AM55 °FMore clouds than sun.5 mph100%30.15 "Hg10 mi
6:35 AM55 °FMore clouds than sun.7 mph94%30.14 "Hg10 mi
6:15 AM54 °FMostly cloudy.7 mph100%30.14 "Hg9 mi
5:55 AM54 °FOvercast.8 mph100%30.12 "Hg7 mi
5:35 AM54 °FOvercast.6 mph100%30.12 "Hg5 mi
5:15 AM54 °FOvercast.6 mph100%30.11 "Hg5 mi
4:55 AM54 °FOvercast.6 mph100%30.11 "Hg5 mi
4:35 AM54 °FOvercast.7 mph94%30.11 "Hg5 mi
4:15 AM54 °FOvercast.3 mph94%30.11 "Hg5 mi
3:55 AM54 °FLow clouds.7 mph94%30.10 "Hg5 mi
3:35 AM54 °FMostly cloudy.3 mph94%30.11 "Hg5 mi
3:15 AM52 °FPartly cloudy.No wind100%30.11 "Hg6 mi
2:55 AM52 °FPassing clouds.No wind100%30.11 "Hg7 mi
2:35 AM52 °FPassing clouds.7 mph100%30.11 "Hg6 mi
2:15 AM52 °FPassing clouds.7 mph94%30.11 "Hg6 mi
Weather by CustomWeather, © 2015

See weather overviewHow to use our weather pages